Versión en castellano
places Weather data articles

Conditions at Mairena del Aljarafe, Sevilla, Spain
Year Month Day Show

  Date        time        Out Temp.    Out hum.   Wind Dir.    Wind speed   SL Pressure   In T. Today rain 

   16-10-2021    13:10      23.9º(+0.6)     57%         -         0.0 km/h    1017.6 hpa     26.3º    0.0 mm
   16-10-2021    13:05      23.8º(+0.4)     58%         -         0.0 km/h    1017.6 hpa     26.2º    0.0 mm
   16-10-2021    13:00      23.7º(+0.5)     58%         -         0.0 km/h    1017.6 hpa     26.2º    0.0 mm
   16-10-2021    12:55      23.7º(+0.9)     57%         -         0.0 km/h    1017.8 hpa     26.2º    0.0 mm
   16-10-2021    12:50      23.7º(+1.0)     58%         -         0.0 km/h    1017.7 hpa     26.2º    0.0 mm
   16-10-2021    12:45      23.7º(+1.1)     58%         -         0.0 km/h    1017.8 hpa     26.2º    0.0 mm
   16-10-2021    12:40      23.8º(+1.5)     58%         -         0.0 km/h    1017.8 hpa     26.2º    0.0 mm
   16-10-2021    12:35      23.7º(+1.5)     59%         -         0.0 km/h    1017.9 hpa     26.2º    0.0 mm
   16-10-2021    12:30      23.7º(+1.3)     59%         -         0.0 km/h    1017.8 hpa     26.2º    0.0 mm
   16-10-2021    12:25      23.3º(+0.7)     62%         -         0.0 km/h    1017.9 hpa     26.2º    0.0 mm
   16-10-2021    12:20      22.7º(+0.3)     64%         -         0.0 km/h    1017.8 hpa     26.2º    0.0 mm
   16-10-2021    12:15      22.1º(-0.1)     65%         -         0.0 km/h    1017.8 hpa     26.2º    0.0 mm
   16-10-2021    12:10      21.7º(-0.6)     66%         -         0.0 km/h    1017.8 hpa     26.1º    0.0 mm
   16-10-2021    12:05      21.5º(-0.6)     65%      067(NE)      1.6 km/h    1017.8 hpa     26.1º    0.0 mm
   16-10-2021    12:00      21.4º(-0.6)     65%         -         0.0 km/h    1017.8 hpa     26.1º    0.0 mm
   16-10-2021    11:55      21.3º(-0.5)     66%         -         0.0 km/h    1017.9 hpa     26.1º    0.0 mm
   16-10-2021    11:50      21.0º(-0.7)     67%         -         0.0 km/h    1017.9 hpa     26.1º    0.0 mm
   16-10-2021    11:45      20.7º(-0.9)     67%      067(NE)      1.6 km/h    1018.0 hpa     26.1º    0.0 mm
   16-10-2021    11:40      20.8º(-0.7)     67%      067(NE)      1.6 km/h    1018.0 hpa     26.1º    0.0 mm
   16-10-2021    11:35      20.8º(-0.5)     66%      067(NE)      3.2 km/h    1018.1 hpa     26.1º    0.0 mm
   16-10-2021    11:30      20.7º(-0.2)     67%      067(NE)      1.6 km/h    1018.0 hpa     26.1º    0.0 mm
   16-10-2021    11:25      20.5º(-0.1)     68%      067(NE)      1.6 km/h    1018.0 hpa     26.1º    0.0 mm
   16-10-2021    11:20      20.2º(-0.1)     69%      045(NE)      1.6 km/h    1018.0 hpa     26.1º    0.0 mm
   16-10-2021    11:15      19.9º(-0.0)     69%      045(NE)      1.6 km/h    1018.1 hpa     26.1º    0.0 mm
   16-10-2021    11:10      19.9º(+0.3)     69%      045(NE)      1.6 km/h    1018.1 hpa     26.1º    0.0 mm
   16-10-2021    11:05      19.8º(+0.4)     70%      045(NE)      1.6 km/h    1018.0 hpa     26.1º    0.0 mm
   16-10-2021    11:00      19.8º(+0.5)     69%      045(NE)      3.2 km/h    1017.9 hpa     26.1º    0.0 mm
   16-10-2021    10:55      19.7º(+0.7)     70%         -         0.0 km/h    1017.9 hpa     26.1º    0.0 mm
   16-10-2021    10:50      19.6º(+0.9)     70%      045(NE)      1.6 km/h    1017.6 hpa     26.1º    0.0 mm
   16-10-2021    10:45      19.6º(+1.2)     69%      045(NE)      1.6 km/h    1017.7 hpa     26.1º    0.0 mm
   16-10-2021    10:40      19.6º(+1.2)     70%         -         0.0 km/h    1017.7 hpa     26.1º    0.0 mm
   16-10-2021    10:35      19.5º(+1.2)     70%         -         0.0 km/h    1017.6 hpa     26.1º    0.0 mm
   16-10-2021    10:30      19.4º(+1.4)     69%         -         0.0 km/h    1017.6 hpa     26.1º    0.0 mm
   16-10-2021    10:25      19.3º(+1.6)     71%         -         0.0 km/h    1017.5 hpa     26.0º    0.0 mm
   16-10-2021    10:20      19.1º(+1.4)     72%         -         0.0 km/h    1017.4 hpa     26.0º    0.0 mm
   16-10-2021    10:15      18.9º(+1.5)     72%         -         0.0 km/h    1017.4 hpa     25.9º    0.0 mm
   16-10-2021    10:10      18.8º(+1.5)     72%      045(NE)      1.6 km/h    1017.3 hpa     25.9º    0.0 mm
   16-10-2021    10:05      18.7º(+1.5)     72%      045(NE)      1.6 km/h    1017.3 hpa     25.9º    0.0 mm
   16-10-2021    10:00      18.7º(+1.5)     73%         -         0.0 km/h    1017.2 hpa     25.9º    0.0 mm
   16-10-2021    09:55      18.6º(+1.5)     75%         -         0.0 km/h    1017.2 hpa     25.9º    0.0 mm
   16-10-2021    09:50      18.3º(+1.3)     76%         -         0.0 km/h    1017.1 hpa     25.8º    0.0 mm
   16-10-2021    09:45      18.1º(+1.2)     77%         -         0.0 km/h    1017.1 hpa     25.8º    0.0 mm
   16-10-2021    09:40      17.9º(+1.1)     78%      067(NE)      1.6 km/h    1017.1 hpa     25.8º    0.0 mm
   16-10-2021    09:35      17.8º(+1.1)     78%      112 (E)      1.6 km/h    1017.0 hpa     25.8º    0.0 mm
   16-10-2021    09:30      17.6º(+0.9)     79%         -         0.0 km/h    1017.0 hpa     25.8º    0.0 mm
   16-10-2021    09:25      17.3º(+0.6)     81%         -         0.0 km/h    1016.9 hpa     25.8º    0.0 mm
   16-10-2021    09:20      17.1º(+0.4)     81%         -         0.0 km/h    1016.9 hpa     25.8º    0.0 mm
   16-10-2021    09:15      16.9º(+0.3)     82%         -         0.0 km/h    1016.9 hpa     25.8º    0.0 mm
   16-10-2021    09:10      16.8º(+0.4)     83%         -         0.0 km/h    1016.8 hpa     25.8º    0.0 mm
   16-10-2021    09:05        - º(----)      -%         -          -  km/h    1016.8 hpa     25.7º    0.0 mm
   16-10-2021    09:00        - º(----)      -%         -          -  km/h    1016.7 hpa     25.8º    0.0 mm
   16-10-2021    08:55        - º(----)      -%         -          -  km/h    1016.8 hpa     25.8º    0.0 mm
   16-10-2021    08:50        - º(----)      -%         -          -  km/h    1016.7 hpa     25.8º    0.0 mm
   16-10-2021    08:45        - º(----)      -%         -          -  km/h    1016.7 hpa     25.8º    0.0 mm
   16-10-2021    08:40        - º(----)      -%         -          -  km/h    1016.6 hpa     25.9º    0.0 mm
   16-10-2021    08:35        - º(----)      -%         -          -  km/h    1016.7 hpa     25.9º    0.0 mm
   16-10-2021    08:30        - º(----)      -%         -          -  km/h    1016.7 hpa     25.9º    0.0 mm
   16-10-2021    08:25        - º(----)      -%         -          -  km/h    1016.7 hpa     25.9º    0.0 mm
   16-10-2021    08:20        - º(----)      -%         -          -  km/h    1016.7 hpa     26.1º    0.0 mm
   16-10-2021    08:15        - º(----)      -%         -          -  km/h    1016.7 hpa     25.9º    0.0 mm
   16-10-2021    08:10        - º(----)      -%         -          -  km/h    1016.6 hpa     25.9º    0.0 mm
   16-10-2021    08:05        - º(----)      -%         -          -  km/h    1016.4 hpa     26.0º    0.0 mm
   16-10-2021    08:00        - º(----)      -%         -          -  km/h    1016.5 hpa     26.0º    0.0 mm
   16-10-2021    07:55        - º(----)      -%         -          -  km/h    1016.3 hpa     26.0º    0.0 mm
   16-10-2021    07:50        - º(----)      -%         -          -  km/h    1016.4 hpa     26.1º    0.0 mm
   16-10-2021    07:45        - º(----)      -%         -          -  km/h    1016.2 hpa     26.4º    0.0 mm
   16-10-2021    07:40      17.3º(----)     86%         -          -  km/h    1016.2 hpa     26.3º    0.0 mm
   16-10-2021    07:35      17.3º(----)     86%         -          -  km/h    1016.1 hpa     26.3º    0.0 mm
   16-10-2021    07:30      17.3º(+0.4)     86%         -         0.0 km/h    1016.2 hpa     26.0º    0.0 mm
   16-10-2021    07:25      17.4º(+0.5)     86%         -         0.0 km/h    1016.1 hpa     25.9º    0.0 mm
   16-10-2021    07:20      17.4º(+0.4)     86%         -         0.0 km/h    1016.2 hpa     25.9º    0.0 mm
   16-10-2021    07:15      17.4º(+0.3)     85%         -         0.0 km/h    1016.2 hpa     25.9º    0.0 mm
   16-10-2021    07:10      17.4º(+0.3)     85%         -         0.0 km/h    1016.2 hpa     25.9º    0.0 mm
   16-10-2021    07:05      17.5º(+0.5)     85%         -         0.0 km/h    1016.2 hpa     25.9º    0.0 mm
   16-10-2021    07:00      17.6º(+0.6)     85%         -         0.0 km/h    1016.2 hpa     25.9º    0.0 mm
   16-10-2021    06:55      17.6º(+0.6)     84%         -         0.0 km/h    1016.2 hpa     25.9º    0.0 mm
   16-10-2021    06:50      17.6º(+0.5)     84%         -         0.0 km/h    1016.1 hpa     25.9º    0.0 mm
   16-10-2021    06:45      17.6º(+0.5)     85%         -         0.0 km/h    1016.3 hpa     25.9º    0.0 mm
   16-10-2021    06:40      17.6º(+0.4)     84%         -         0.0 km/h    1016.1 hpa     25.9º    0.0 mm
   16-10-2021    06:35      17.5º(+0.3)     83%         -         0.0 km/h    1016.1 hpa     25.9º    0.0 mm
   16-10-2021    06:30      17.5º(+0.3)     82%         -         0.0 km/h    1016.1 hpa     25.9º    0.0 mm
   16-10-2021    06:25      17.5º(+0.2)     81%         -         0.0 km/h    1016.1 hpa     25.9º    0.0 mm
   16-10-2021    06:20      17.4º(+0.0)     80%         -         0.0 km/h    1016.1 hpa     25.9º    0.0 mm
   16-10-2021    06:15      17.4º(-0.1)     79%         -         0.0 km/h    1016.0 hpa     25.9º    0.0 mm
   16-10-2021    06:10      17.4º(-0.2)     79%         -         0.0 km/h    1016.0 hpa     25.9º    0.0 mm
   16-10-2021    06:05      17.5º(-0.2)     78%         -         0.0 km/h    1016.0 hpa     25.9º    0.0 mm
   16-10-2021    06:00      17.6º(-0.2)     78%         -         0.0 km/h    1016.1 hpa     25.9º    0.0 mm
   16-10-2021    05:55      17.7º(-0.2)     77%      135(SE)      1.6 km/h    1016.0 hpa     25.9º    0.0 mm
   16-10-2021    05:50      17.8º(-0.2)     76%         -         0.0 km/h    1016.0 hpa     25.9º    0.0 mm
   16-10-2021    05:45      17.9º(-0.3)     76%         -         0.0 km/h    1016.1 hpa     25.9º    0.0 mm
   16-10-2021    05:40      18.0º(-0.3)     76%         -         0.0 km/h    1016.1 hpa     26.0º    0.0 mm
   16-10-2021    05:35      18.0º(-0.4)     75%         -         0.0 km/h    1016.0 hpa     26.0º    0.0 mm
   16-10-2021    05:30      17.9º(-0.6)     75%      135(SE)      1.6 km/h    1016.0 hpa     26.0º    0.0 mm
   16-10-2021    05:25      17.9º(-0.7)     75%         -         0.0 km/h    1016.1 hpa     26.0º    0.0 mm
   16-10-2021    05:20      17.9º(-0.7)     75%         -         0.0 km/h    1016.1 hpa     26.0º    0.0 mm
   16-10-2021    05:15      17.8º(-0.9)     75%         -         0.0 km/h    1016.1 hpa     26.0º    0.0 mm
   16-10-2021    05:10      17.8º(-0.9)     74%         -         0.0 km/h    1016.1 hpa     26.0º    0.0 mm
   16-10-2021    05:05      17.8º(-0.9)     75%         -         0.0 km/h    1016.1 hpa     26.0º    0.0 mm
   16-10-2021    05:00      17.8º(-0.9)     74%      135(SE)      1.6 km/h    1016.2 hpa     26.0º    0.0 mm
   16-10-2021    04:55      17.8º(-1.0)     74%         -         0.0 km/h    1016.2 hpa     26.0º    0.0 mm
   16-10-2021    04:50      17.8º(-1.0)     74%         -         0.0 km/h    1016.3 hpa     26.0º    0.0 mm
   16-10-2021    04:45      17.8º(-1.0)     74%         -         0.0 km/h    1016.3 hpa     26.1º    0.0 mm
   16-10-2021    04:40      17.7º(-1.2)     74%         -         0.0 km/h    1016.4 hpa     26.1º    0.0 mm
   16-10-2021    04:35      17.7º(-1.2)     74%         -         0.0 km/h    1016.3 hpa     26.1º    0.0 mm
   16-10-2021    04:30      17.7º(-1.4)     74%         -         0.0 km/h    1016.4 hpa     26.1º    0.0 mm
   16-10-2021    04:25      17.7º(-1.4)     74%         -         0.0 km/h    1016.4 hpa     26.1º    0.0 mm
   16-10-2021    04:20      17.7º(-1.5)     74%         -         0.0 km/h    1016.5 hpa     26.1º    0.0 mm
   16-10-2021    04:15      17.8º(-1.4)     73%         -         0.0 km/h    1016.5 hpa     26.1º    0.0 mm
   16-10-2021    04:10      17.8º(-1.5)     73%         -         0.0 km/h    1016.6 hpa     26.1º    0.0 mm
   16-10-2021    04:05      17.9º(-1.4)     74%         -         0.0 km/h    1016.6 hpa     26.2º    0.0 mm
   16-10-2021    04:00      17.8º(-1.6)     74%         -         0.0 km/h    1016.6 hpa     26.2º    0.0 mm
   16-10-2021    03:55      17.8º(-1.6)     74%         -         0.0 km/h    1016.7 hpa     26.2º    0.0 mm
   16-10-2021    03:50      17.6º(-1.9)     75%         -         0.0 km/h    1016.7 hpa     26.2º    0.0 mm
   16-10-2021    03:45      17.6º(-2.0)     75%         -         0.0 km/h    1016.6 hpa     26.2º    0.0 mm
   16-10-2021    03:40      17.5º(-2.2)     75%         -         0.0 km/h    1016.7 hpa     26.2º    0.0 mm
   16-10-2021    03:35      17.4º(-2.4)     75%         -         0.0 km/h    1016.8 hpa     26.2º    0.0 mm
   16-10-2021    03:30      17.4º(-2.5)     74%         -         0.0 km/h    1017.1 hpa     26.2º    0.0 mm
   16-10-2021    03:25      17.4º(-2.7)     74%      135(SE)      1.6 km/h    1017.2 hpa     26.2º    0.0 mm
   16-10-2021    03:20      17.5º(-2.8)     74%         -         0.0 km/h    1017.2 hpa     26.2º    0.0 mm
   16-10-2021    03:15      17.6º(-2.8)     74%      135(SE)      1.6 km/h    1017.3 hpa     26.2º    0.0 mm
   16-10-2021    03:10      17.7º(-2.7)     74%         -         0.0 km/h    1017.1 hpa     26.2º    0.0 mm
   16-10-2021    03:05      17.8º(-2.6)     73%      135(SE)      1.6 km/h    1017.2 hpa     26.2º    0.0 mm
   16-10-2021    03:00      17.9º(-2.5)     73%      135(SE)      1.6 km/h    1017.3 hpa     26.2º    0.0 mm
   16-10-2021    02:55      18.1º(-2.3)     73%      135(SE)      1.6 km/h    1017.4 hpa     26.2º    0.0 mm
   16-10-2021    02:50      18.2º(-2.1)     72%      135(SE)      1.6 km/h    1017.4 hpa     26.1º    0.0 mm
   16-10-2021    02:45      18.2º(-2.0)     72%         -         0.0 km/h    1017.3 hpa     26.1º    0.0 mm
   16-10-2021    02:40      18.2º(-2.0)     72%         -         0.0 km/h    1017.4 hpa     26.1º    0.0 mm
   16-10-2021    02:35      18.3º(-1.9)     72%         -         0.0 km/h    1017.4 hpa     26.1º    0.0 mm
   16-10-2021    02:30      18.3º(-1.9)     71%      112 (E)      3.2 km/h    1017.4 hpa     26.1º    0.0 mm
   16-10-2021    02:25      18.3º(-2.0)     71%      112 (E)      1.6 km/h    1017.4 hpa     26.1º    0.0 mm
   16-10-2021    02:20      18.3º(-2.1)     70%      090 (E)      1.6 km/h    1017.4 hpa     26.1º    0.0 mm
   16-10-2021    02:15      18.4º(-2.0)     69%         -         0.0 km/h    1017.4 hpa     26.1º    0.0 mm
   16-10-2021    02:10      18.5º(-2.0)     70%         -         0.0 km/h    1017.5 hpa     26.2º    0.0 mm
   16-10-2021    02:05      18.6º(-2.0)     69%      090 (E)      3.2 km/h    1017.4 hpa     26.3º    0.0 mm
   16-10-2021    02:00      18.8º(-1.8)     68%      067(NE)      1.6 km/h    1017.2 hpa     26.3º    0.0 mm
   16-10-2021    01:55      19.0º(----)     68%         -         0.0 km/h    1017.3 hpa     26.4º    0.0 mm
   16-10-2021    01:50      19.1º(----)     67%         -         0.0 km/h    1017.3 hpa     26.4º    0.0 mm
   16-10-2021    01:45      19.2º(----)     66%      067(NE)      3.2 km/h    1017.4 hpa     26.5º    0.0 mm
   16-10-2021    01:40      19.7º(----)     64%      045(NE)      1.6 km/h    1017.4 hpa     26.6º    0.0 mm
   16-10-2021    01:35      20.3º(----)     63%      315(NW)      1.6 km/h    1017.4 hpa     26.6º    0.0 mm
   16-10-2021    01:30      20.6º(----)     64%         -         0.0 km/h    1017.3 hpa     26.7º    0.0 mm
   16-10-2021    01:25      20.6º(----)     64%      315(NW)      3.2 km/h    1017.2 hpa     26.7º    0.0 mm
   16-10-2021    01:20      20.6º(----)     64%      315(NW)      4.8 km/h    1017.3 hpa     26.6º    0.0 mm
   16-10-2021    01:15      20.6º(----)     63%      315(NW)      4.8 km/h    1017.2 hpa     26.6º    0.0 mm
   16-10-2021    01:10      20.6º(----)     63%      337(NW)      3.2 km/h    1017.2 hpa     26.6º    0.0 mm
   16-10-2021    01:05      20.6º(----)     63%      315(NW)      4.8 km/h    1017.2 hpa     26.7º    0.0 mm
   16-10-2021    01:00      20.6º(----)     63%      315(NW)      4.8 km/h    1017.3 hpa     26.7º    0.0 mm
   16-10-2021    00:55      20.5º(----)     64%      337(NW)      4.8 km/h    1017.3 hpa     26.7º    0.0 mm
   16-10-2021    00:50      20.4º(----)     64%      337(NW)      6.4 km/h    1017.3 hpa     26.7º    0.0 mm
   16-10-2021    00:45      20.3º(----)     63%      337(NW)      4.8 km/h    1017.4 hpa     26.7º    0.0 mm
   16-10-2021    00:40      20.3º(----)     63%      337(NW)      6.4 km/h    1017.4 hpa     26.7º    0.0 mm
   16-10-2021    00:35      20.3º(----)     63%      315(NW)      4.8 km/h    1017.5 hpa     26.7º    0.0 mm
   16-10-2021    00:30      20.3º(----)     63%      292 (W)      3.2 km/h    1017.5 hpa     26.7º    0.0 mm
   16-10-2021    00:25      20.4º(----)     62%      292 (W)      3.2 km/h    1017.4 hpa     26.7º    0.0 mm
   16-10-2021    00:20      20.4º(----)     62%      292 (W)      4.8 km/h    1017.5 hpa     26.7º    0.0 mm
   16-10-2021    00:15      20.4º(----)     62%      292 (W)      4.8 km/h    1017.6 hpa     26.7º    0.0 mm
   16-10-2021    00:10      20.6º(----)     61%      270 (W)      4.8 km/h    1017.5 hpa     26.7º    0.0 mm
   16-10-2021    00:05      20.6º(----)     61%      315(NW)      3.2 km/h    1017.6 hpa     26.7º    0.0 mm
   16-10-2021    00:00      20.7º(----)     60%      292 (W)      3.2 km/h    1017.5 hpa     26.7º    0.0 mm